Stations météo

Publicité
Mont-De-Marsan, France (7607): Température de l'air & dewpoint: 14.04.2019 14:00:00 - 20.04.2019 14:00:00 (CEST)Mont-De-Marsan, France (7607): Température de l'air 5cm: 14.04.2019 14:00:00 - 20.04.2019 14:00:00 (CEST)Mont-De-Marsan, France (7607): Température de l'air -20cm & Température de l'air -100cm: 14.04.2019 14:00:00 - 20.04.2019 14:00:00 (CEST)Mont-De-Marsan, France (7607): Vitesse du vent & gusts: 14.04.2019 14:00:00 - 20.04.2019 14:00:00 (CEST)Mont-De-Marsan, France (7607): Direction du vent: 14.04.2019 14:00:00 - 20.04.2019 14:00:00 (CEST)Mont-De-Marsan, France (7607): reduced air pressure: 14.04.2019 14:00:00 - 20.04.2019 14:00:00 (CEST)Mont-De-Marsan, France (7607): visibility: 14.04.2019 14:00:00 - 20.04.2019 14:00:00 (CEST)Mont-De-Marsan, France (7607): Ensoleillement: 14.04.2019 14:00:00 - 20.04.2019 14:00:00 (CEST)Mont-De-Marsan, France (7607): Quantités de précipitations: 14.04.2019 14:00:00 - 20.04.2019 14:00:00 (CEST)
Date & Time tt [°C] td [°C] tt 5cm [°C] tt -20cm [°C] tt -100cm [°C] ff [km/h] ff [knt] fx [km/h] fx [knt] dd ppp [hPa] vv [km] sd [min] rr [mm]
20.04.2019 14:00:00 22,3 6,9 26,0 15,3 13,8 24 13 39 21 E 1021,2 49 60 0,0
20.04.2019 13:00:00 20,9 7,5 24,8 15,1 13,8 17 9 37 20 E 1021,8 53 60 0,0
20.04.2019 12:00:00 20,0 7,4 22,7 15,0 13,8 17 9 34 18 E 1022,3 20 60 0,0
20.04.2019 11:00:00 18,1 6,9 18,7 15,0 13,7 12 7 26 14 E 1022,8 59 60 0,0
20.04.2019 10:00:00 14,6 5,9 14,7 15,2 13,7 11 6 16 8 E 1023,5 59 60 0,0
20.04.2019 09:00:00 10,6 4,9 7,7 15,4 13,8 4 2 6 3 E 1023,8 44 60 0,0
20.04.2019 08:00:00 6,1 3,9 2,0 15,7 13,7 2 1 6 4 NNE 1023,8 39 27 0,0
20.04.2019 07:00:00 6,3 3,1 1,9 16,0 13,7 2 1 8 5 ENE 1023,3 42 0 0,0
20.04.2019 06:00:00 6,3 3,1 3,2 16,2 13,7 6 4 10 6 NE 1023,2 46 0 0,0
20.04.2019 05:00:00 7,6 3,3 3,0 16,5 13,7 5 3 8 4 NNE 1023,6 59 0 0,0
20.04.2019 04:00:00 8,7 3,5 3,7 16,8 13,7 4 2 6 3 NNE 1023,5 60 0 0,0
20.04.2019 03:00:00 11,4 2,9 5,2 17,0 13,7 4 2 10 5 ENE 1023,6 60 0 0,0
20.04.2019 02:00:00 11,5 3,3 6,8 17,2 13,7 8 5 13 7 NE 1024,1 60 0 0,0
20.04.2019 01:00:00 12,4 4,6 9,0 17,4 13,7 8 4 13 7 E 1024,2 60 0 0,0
20.04.2019 00:00:00 13,9 5,5 9,9 17,6 13,7 6 4 18 10 E 1024,3 60 0 0,0
19.04.2019 23:00:00 14,6 5,9 11,2 17,8 13,7 12 7 17 9 E 1024,2 60 0 0,0
19.04.2019 22:00:00 15,4 5,6 12,9 17,8 13,7 11 6 19 11 ENE 1023,8 60 0 0,0
19.04.2019 21:00:00 18,8 5,3 17,2 17,7 13,7 15 8 29 16 E 1022,9 60 24 0,0
19.04.2019 20:00:00 20,9 6,4 20,7 17,5 13,7 23 12 43 23 E 1022,0 48 60 0,0
19.04.2019 19:00:00 22,2 8,3 23,8 17,2 13,7 24 13 39 21 E 1021,5 60 60 0,0
19.04.2019 18:00:00 23,1 8,4 25,5 16,8 13,7 26 14 42 23 E 1021,1 57 60 0,0
19.04.2019 17:00:00 23,9 8,3 26,9 16,2 13,6 25 14 43 23 E 1020,7 59 58 0,0
19.04.2019 16:00:00 23,8 8,2 28,2 15,7 13,6 14 8 40 22 E 1020,8 20 60 0,0
19.04.2019 15:00:00 22,6 8,3 27,1 15,3 13,6 15 8 32 17 ESE 1020,9 60 60 0,0
19.04.2019 14:00:00 21,1 10,3 23,5 14,9 13,6 11 6 23 12 E 1021,0 60 40 0,0
19.04.2019 13:00:00 20,5 13,0 23,9 14,7 13,6 7 4 14 7 ESE 1021,2 16 51 0,0
19.04.2019 12:00:00 18,5 12,9 20,7 14,6 13,6 5 3 14 8 SSE 1021,1 17 57 0,0
19.04.2019 11:00:00 15,0 12,1 15,9 14,5 13,6 4 2 10 5 SSE 1020,9 14 7 0,0
19.04.2019 10:00:00 13,3 11,7 14,1 14,6 13,6 2 1 7 4 SE 1020,2 10 0 0,0
19.04.2019 09:00:00 12,4 11,0 10,0 14,7 13,6 3 2 8 5 SSE 1019,6 15 0 0,0
19.04.2019 08:00:00 10,4 8,0 8,7 14,8 13,6 4 2 7 4 E 1018,9 40 0 0,0
19.04.2019 07:00:00 11,1 7,6 8,7 15,0 13,6 2 1 5 3 S 1017,9 51 0 0,0
19.04.2019 06:00:00 11,8 7,3 10,2 15,1 13,6 3 1 5 3 SSE 1017,5 58 0 0,0
19.04.2019 05:00:00 12,4 6,9 10,6 15,2 13,6 2 1 16 9 SSE 1017,4 59 0 0,0
19.04.2019 04:00:00 11,3 7,4 10,1 15,3 13,6 8 5 13 7 NE 1017,1 60 0 0,0
19.04.2019 03:00:00 13,0 6,3 9,6 15,4 13,6 0 0 9 5 N 1017,7 60 0 0,0
19.04.2019 02:00:00 13,2 6,5 11,3 15,6 13,6 6 3 9 5 NE 1016,7 60 0 0,0
19.04.2019 01:00:00 14,3 6,1 13,2 15,7 13,6 9 5 14 8 ENE 1016,8 60 0 0,0
19.04.2019 00:00:00 15,0 6,5 14,1 15,8 13,6 11 6 19 11 ENE 1016,2 60 0 0,0
18.04.2019 23:00:00 15,7 7,2 14,2 15,9 13,6 10 5 27 14 E 1015,9 60 0 0,0
18.04.2019 22:00:00 15,8 8,5 15,0 15,9 13,5 12 6 22 12 E 1015,8 60 0 0,0
18.04.2019 21:00:00 16,2 9,4 15,4 15,9 13,5 13 7 22 12 ENE 1015,5 60 0 0,0
18.04.2019 20:00:00 16,9 10,7 16,4 15,8 13,6 11 6 22 12 ENE 1014,9 60 0 0,0
18.04.2019 19:00:00 18,0 10,8 18,1 15,7 13,5 13 7 22 12 ENE 1015,2 60 0 0,0
18.04.2019 18:00:00 18,4 11,2 18,8 15,6 13,5 13 7 23 13 E 1014,6 60 0 0,0
18.04.2019 17:00:00 18,4 10,7 18,5 15,4 13,5 11 6 37 20 E 1014,9 60 0 0,0
18.04.2019 16:00:00 17,8 10,7 18,4 15,1 13,5 25 14 38 21 NE 1013,7 60 0 0,0
18.04.2019 15:00:00 18,3 11,1 19,8 14,9 13,5 13 7 21 12 E 1015,7 60 0 0,0
18.04.2019 14:00:00 18,4 10,7 21,4 14,6 13,5 8 4 18 10 E 1015,7 19 23 0,0
18.04.2019 13:00:00 17,8 10,7 21,3 14,4 13,5 10 6 21 12 SE 1016,0 60 21 0,0
18.04.2019 12:00:00 17,4 10,3 20,5 14,3 13,5 13 7 23 12 ESE 1015,4 20 58 0,0
18.04.2019 11:00:00 16,3 11,0 15,4 14,3 13,5 16 9 29 16 E 1014,8 60 30 0,0
18.04.2019 10:00:00 14,2 10,4 13,6 14,4 13,5 18 10 29 16 E 1014,3 56 0 0,0
18.04.2019 09:00:00 13,3 10,7 11,8 14,5 13,5 18 10 29 16 E 1013,8 42 0 0,0
18.04.2019 08:00:00 12,0 10,6 10,5 14,6 13,4 12 7 21 11 ENE 1013,5 32 0 0,0
18.04.2019 07:00:00 11,0 10,1 9,7 14,7 13,4 12 7 19 10 ENE 1012,8 24 0 0,0
18.04.2019 06:00:00 10,5 9,7 8,7 14,8 13,4 9 5 11 6 NE 1012,7 20 0 0,0
18.04.2019 05:00:00 11,2 9,5 9,3 15,0 13,4 5 3 18 10 E 1012,9 39 0 0,0
18.04.2019 04:00:00 12,3 10,0 11,1 15,1 13,4 6 3 16 9 ENE 1012,9 50 0 0,0
18.04.2019 03:00:00 13,2 10,0 12,6 15,2 13,4 6 3 24 13 ESE 1012,9 59 0 0,0
18.04.2019 02:00:00 13,1 9,9 12,6 15,3 13,4 14 7 32 18 E 1013,0 60 0 0,0
18.04.2019 01:00:00 13,2 9,8 12,7 15,4 13,4 17 9 29 16 E 1012,7 60 0 0,0
18.04.2019 00:00:00 13,3 9,5 12,5 15,6 13,4 16 9 30 16 E 1012,4 60 0 0,0
17.04.2019 23:00:00 13,9 9,3 12,9 15,7 13,4 20 11 37 20 E 1012,1 60 0 0,0
17.04.2019 22:00:00 15,1 9,9 14,2 15,7 13,4 20 11 39 21 E 1011,7 60 0 0,0
17.04.2019 21:00:00 16,0 10,5 15,2 15,6 13,4 19 11 36 19 E 1011,1 60 21 0,0
17.04.2019 20:00:00 17,2 11,0 17,1 15,5 13,4 16 9 32 18 E 1011,0 60 12 0,0
17.04.2019 19:00:00 18,2 10,8 18,6 15,3 13,4 20 11 34 19 E 1011,5 60 13 0,0
17.04.2019 18:00:00 18,7 10,5 19,5 15,2 13,4 26 14 42 23 E 1011,3 60 28 0,0
17.04.2019 17:00:00 18,7 11,3 19,3 15,0 13,4 19 10 42 23 ESE 1011,5 60 21 0,0
17.04.2019 16:00:00 17,9 10,8 19,3 14,8 13,4 22 12 37 20 E 1012,1 60 0 0,0
17.04.2019 15:00:00 17,8 10,9 18,5 14,6 13,3 19 10 34 19 ESE 1012,7 60 8 0,0
17.04.2019 14:00:00 16,8 10,9 18,1 14,5 13,3 21 12 36 19 E 1013,0 60 0 0,0
17.04.2019 13:00:00 16,1 10,4 17,0 14,4 13,3 20 11 32 17 E 1013,3 60 0 0,0
17.04.2019 12:00:00 15,2 10,0 16,2 14,4 13,3 22 12 35 19 E 1013,6 60 0 0,0
17.04.2019 11:00:00 14,9 9,5 16,2 14,4 13,3 17 9 30 16 E 1013,8 60 27 0,0
17.04.2019 10:00:00 14,1 9,5 14,7 14,5 13,3 14 8 31 17 E 1013,5 60 50 0,0
17.04.2019 09:00:00 12,4 9,0 10,8 14,7 13,3 14 8 25 14 E 1013,8 60 24 0,0
17.04.2019 08:00:00 10,7 8,8 9,5 14,8 13,3 12 7 20 11 E 1013,9 52 19 0,0
17.04.2019 07:00:00 10,6 8,9 9,9 15,0 13,3 12 7 18 10 E 1013,8 60 0 0,0
17.04.2019 06:00:00 10,9 9,0 10,1 15,2 13,2 13 7 22 12 E 1014,1 59 0 0,0
17.04.2019 05:00:00 10,8 9,1 10,0 15,4 13,2 11 6 19 10 E 1014,8 59 0 0,0
17.04.2019 04:00:00 11,5 9,1 10,5 15,6 13,2 12 6 23 12 E 1015,6 60 0 0,0
17.04.2019 03:00:00 11,2 8,1 9,4 15,9 13,2 13 7 20 11 E 1016,0 60 0 0,0
17.04.2019 02:00:00 10,6 6,9 8,4 16,0 13,2 9 5 15 8 E 1016,8 60 0 0,0
17.04.2019 01:00:00 10,6 6,9 8,8 16,3 13,2 9 5 14 8 E 1017,5 60 0 0,0
17.04.2019 00:00:00 11,9 7,4 10,6 16,5 13,2 11 6 21 12 E 1017,7 60 0 0,0
16.04.2019 23:00:00 13,1 7,7 10,8 16,6 13,2 14 8 23 12 E 1017,9 60 0 0,0
16.04.2019 22:00:00 13,4 7,8 11,9 16,6 13,2 10 5 16 8 E 1018,3 35 0 0,0
16.04.2019 21:00:00 16,3 7,8 14,6 16,6 13,2 9 5 16 9 E 1018,0 60 20 0,0
16.04.2019 20:00:00 18,2 7,0 18,9 16,4 13,2 10 5 21 12 ESE 1017,7 60 60 0,0
16.04.2019 19:00:00 19,0 7,1 22,7 16,1 13,2 11 6 19 10 ESE 1017,9 60 60 0,0
16.04.2019 18:00:00 19,4 6,8 24,1 15,7 13,2 9 5 21 11 ESE 1018,2 60 60 0,0
16.04.2019 17:00:00 19,7 8,1 25,7 15,3 13,2 9 5 21 11 ESE 1018,4 20 60 0,0
16.04.2019 16:00:00 18,8 6,6 20,0 14,8 13,2 8 5 23 12 ESE 1019,0 20 29 0,0
16.04.2019 15:00:00 17,9 6,7 21,2 14,4 13,2 10 5 16 9 NW 1019,8 60 50 0,0
16.04.2019 14:00:00 17,9 7,6 19,0 14,1 13,2 4 2 14 8 WSW 1020,2 17 44 0,0
16.04.2019 13:00:00 16,1 8,6 15,7 13,9 13,2 9 5 17 9 WNW 1020,6 60 35 0,0
16.04.2019 12:00:00 15,1 9,2 14,2 13,8 13,1 11 6 33 18 W 1020,9 60 36 0,0
16.04.2019 11:00:00 14,7 10,9 14,1 13,8 13,1 6 3 22 12 WSW 1021,0 17 29 0,0
16.04.2019 10:00:00 13,3 11,2 12,6 13,9 13,1 16 9 21 11 W 1021,2 18 55 0,0
16.04.2019 09:00:00 11,4 10,6 10,3 14,0 13,1 8 4 14 7 W 1020,6 15 29 0,0
16.04.2019 08:00:00 10,6 10,1 8,9 14,2 13,2 9 5 13 7 WSW 1020,1 15 0 0,0
16.04.2019 07:00:00 10,5 10,2 9,6 14,3 13,1 10 5 14 7 W 1019,3 11 0 0,0
16.04.2019 06:00:00 11,1 10,5 10,4 14,4 13,2 10 5 27 14 W 1018,7 20 0 0,0
16.04.2019 05:00:00 11,8 11,0 11,3 14,5 13,1 15 8 29 15 W 1018,2 4,1 0 0,6
16.04.2019 04:00:00 12,2 11,4 11,6 14,6 13,1 14 7 27 15 WSW 1017,8 14 0 0,0
16.04.2019 03:00:00 12,3 11,7 11,8 14,7 13,1 14 7 28 15 WSW 1017,6 40 0 0,0
16.04.2019 02:00:00 12,4 11,9 11,8 14,8 13,1 16 8 33 18 WSW 1017,7 19 0 0,8
16.04.2019 01:00:00 12,5 11,9 12,0 14,9 13,1 18 10 34 19 WSW 1017,4 13 0 0,8
16.04.2019 00:00:00 13,1 12,6 12,7 15,1 13,1 21 11 39 21 W 1016,3 14 0 2,0
15.04.2019 23:00:00 14,0 13,5 13,7 15,2 13,1 8 5 17 9 SSW 1015,2 4,3 0 8,3
15.04.2019 22:00:00 14,2 13,7 13,5 15,1 13,1 5 3 18 10 S 1014,1 5 0 3,2
15.04.2019 21:00:00 14,3 13,5 13,8 15,1 13,1 13 7 34 18 NNE 1012,6 7 0 3,8
15.04.2019 20:00:00 14,8 13,3 13,0 14,9 13,1 19 11 50 27 W 1012,5 2,6 0 5,1
15.04.2019 19:00:00 18,9 7,0 19,1 14,7 13,1 20 11 36 19 E 1007,5 57 26 0,0
15.04.2019 18:00:00 19,4 7,8 20,1 14,4 13,1 16 9 32 18 E 1008,3 60 0 0,0
15.04.2019 17:00:00 19,8 9,1 20,8 14,2 13,1 19 10 40 22 E 1008,1 60 6 0,0
15.04.2019 16:00:00 19,9 9,5 21,6 13,9 13,0 23 12 36 19 E 1008,7 60 0 0,0
15.04.2019 15:00:00 19,5 9,7 20,8 13,7 13,0 23 12 35 19 E 1009,3 60 0 0,0
15.04.2019 14:00:00 19,1 9,6 20,6 13,4 13,0 19 11 31 17 ESE 1010,0 60 0 0,0
15.04.2019 13:00:00 18,4 8,6 20,4 13,3 13,0 21 11 31 17 E 1010,6 60 0 0,0
15.04.2019 12:00:00 17,9 7,9 18,5 13,2 13,0 22 12 32 18 E 1011,3 60 27 0,0
15.04.2019 11:00:00 15,7 6,4 16,2 13,3 13,1 18 10 32 18 E 1012,0 60 18 0,0
15.04.2019 10:00:00 13,8 5,2 13,1 13,4 13,0 19 10 34 18 E 1013,0 57 58 0,0
15.04.2019 09:00:00 10,5 4,6 8,1 13,5 13,0 13 7 21 11 E 1013,7 59 10 0,0
15.04.2019 08:00:00 8,0 4,2 6,4 13,7 13,0 11 6 16 9 E 1014,3 57 11 0,0
15.04.2019 07:00:00 7,7 3,7 5,9 13,9 13,0 12 6 19 10 E 1014,3 52 0 0,0
15.04.2019 06:00:00 7,2 3,4 5,0 14,1 13,0 10 5 15 8 E 1014,8 49 0 0,0
15.04.2019 05:00:00 6,0 3,5 4,3 14,3 13,0 11 6 13 7 E 1015,3 56 0 0,0
15.04.2019 04:00:00 5,8 3,3 3,0 14,5 13,0 7 4 10 5 ENE 1016,5 56 0 0,0
15.04.2019 03:00:00 6,3 3,3 3,7 14,7 13,0 6 3 11 6 ENE 1017,1 60 0 0,0
15.04.2019 02:00:00 6,8 3,6 3,9 14,9 13,0 8 5 10 5 ENE 1017,8 60 0 0,0
15.04.2019 01:00:00 8,0 3,8 4,9 15,1 13,0 5 3 10 5 ENE 1018,1 60 0 0,0
15.04.2019 00:00:00 8,6 4,0 5,6 15,2 13,0 7 4 13 7 ENE 1018,0 60 0 0,0
14.04.2019 23:00:00 8,3 5,4 5,9 15,3 13,0 8 4 10 6 ENE 1018,1 60 0 0,0
14.04.2019 22:00:00 12,0 5,6 7,4 15,3 13,0 6 3 9 5 NE 1018,1 60 0 0,0
14.04.2019 21:00:00 14,1 6,0 9,1 15,1 13,0 3 2 10 5 W 1017,3 60 14 0,0
14.04.2019 20:00:00 16,9 5,5 17,7 14,9 13,0 4 2 14 7 W 1017,0 60 60 0,0
14.04.2019 19:00:00 18,0 5,6 21,3 14,6 13,0 6 3 21 11 NNW 1016,8 60 60 0,0
14.04.2019 18:00:00 17,3 5,2 21,4 14,3 13,0 13 7 25 13 NW 1017,3 60 60 0,0
14.04.2019 17:00:00 17,2 3,8 20,6 13,9 12,9 8 5 18 10 W 1017,4 60 44 0,0
14.04.2019 16:00:00 16,0 3,1 18,2 13,6 12,9 6 3 16 9 NW 1018,3 18 7 0,0
14.04.2019 15:00:00 14,8 1,3 19,7 13,5 12,9 6 4 14 8 SW 1018,2 39 25 0,0
14.04.2019 14:00:00 13,5 1,5 17,5 13,4 12,9 4 2 18 10 NE 1018,4 20 0 0,0

tt = Température de l'air
td = dewpoint
tt 5cm = Température de l'air 5cm
tt -20cm = Température de l'air -20cm
tt -100cm = Température de l'air -100cm
ff = Vitesse du vent
fx = gusts
dd = Direction du vent
ppp = reduced air pressure
vv = visibility
sd = Ensoleillement
rr = Quantités de précipitations

stations d'obs. à proximité